Location: ČR
(50.0000°N, 15.0000°E)
Time: 13:50:20
(UTC+00:00)

A-11 Canister half - All Passes

Search period start: 25 October 2021 00:00
Search period end: 04 November 2021 00:00
Orbit: 1525 x 1684 km, 47.3° (Epoch: 24 October)

Date Brightness Start Highest point End Pass type
(mag) Time Alt. Az. Time Alt. Az. Time Alt. Az.
25 Oct - 09:27:34 10° S 09:33:51 20° SE 09:40:02 10° E daylight
25 Oct - 11:28:09 10° SW 11:37:10 51° SSE 11:46:01 10° E daylight
25 Oct - 13:32:12 10° WSW 13:41:34 76° S 13:50:51 10° E daylight
25 Oct - 15:37:02 10° W 15:46:14 66° SSW 15:55:25 10° ESE daylight
25 Oct - 17:42:10 10° W 17:50:05 33° SW 17:58:05 10° SSE visible
26 Oct - 09:06:15 10° S 09:12:17 19° SE 09:18:14 10° E daylight
26 Oct - 11:06:34 10° SW 11:15:33 49° SSE 11:24:21 10° E daylight
26 Oct - 13:10:32 10° WSW 13:19:55 75° S 13:29:11 10° E daylight
26 Oct - 15:15:22 10° W 15:24:35 67° SSW 15:33:46 10° ESE daylight
26 Oct - 17:20:28 10° W 17:28:30 34° SW 17:36:36 10° SSE visible
27 Oct - 08:44:57 10° SSE 08:50:43 18° SE 08:56:24 10° E daylight
27 Oct - 10:44:58 10° SW 10:53:56 48° SSE 11:02:42 10° E daylight
27 Oct - 12:48:51 10° WSW 12:58:16 75° S 13:07:32 10° E daylight
27 Oct - 14:53:43 10° W 15:02:57 68° SSW 15:12:09 10° ESE daylight
27 Oct - 16:58:46 10° W 17:06:54 36° SW 17:15:05 10° SSE visible
28 Oct - 08:23:41 10° SSE 08:29:09 17° SE 08:34:32 10° E daylight
28 Oct - 10:23:24 10° SW 10:32:19 46° SSE 10:41:02 10° E daylight
28 Oct - 12:27:12 10° WSW 12:36:37 74° S 12:45:53 10° E daylight
28 Oct - 14:32:02 10° W 14:41:19 69° SSW 14:50:31 10° ESE daylight
28 Oct - 16:37:04 10° W 16:45:19 37° SW 16:53:35 10° SSE visible
28 Oct - 18:46:21 10° WSW 18:48:03 11° WSW 18:49:44 10° SW visible
29 Oct - 08:02:28 10° SSE 08:07:36 16° SE 08:12:39 10° E daylight
29 Oct - 10:01:48 10° SW 10:10:42 45° SSE 10:19:22 10° E daylight
29 Oct - 12:05:32 10° WSW 12:14:58 73° S 12:24:13 10° E daylight
29 Oct - 14:10:22 10° W 14:19:40 70° SSW 14:28:52 10° ESE daylight
29 Oct - 16:15:23 10° W 16:23:43 39° SW 16:32:04 10° SSE visible
29 Oct - 18:23:48 10° WSW 18:26:30 12° WSW 18:29:13 10° SW visible
30 Oct - 07:41:17 10° SSE 07:46:02 15° SE 07:50:43 10° E daylight
30 Oct - 09:40:14 10° SSW 09:49:05 43° SE 09:57:43 10° E daylight
30 Oct - 11:43:51 10° WSW 11:53:19 73° S 12:02:34 10° E daylight
30 Oct - 13:48:42 10° W 13:58:01 71° SSW 14:07:14 10° ESE daylight
30 Oct - 15:53:41 10° W 16:02:07 40° SW 16:10:32 10° SSE daylight
30 Oct - 18:01:33 10° WSW 18:04:57 12° SW 18:08:23 10° SSW visible
31 Oct - 07:20:10 10° SSE 07:24:28 14° SE 07:28:43 10° E daylight
31 Oct - 09:18:40 10° SSW 09:27:28 42° SE 09:36:02 10° E daylight
31 Oct - 11:22:11 10° WSW 11:31:40 72° SSE 11:40:55 10° E daylight
31 Oct - 13:27:01 10° W 13:36:23 72° SSW 13:45:36 10° ESE daylight
31 Oct - 15:32:00 10° W 15:40:31 42° SW 15:49:00 10° SSE daylight
31 Oct - 17:39:27 10° W 17:43:25 13° SW 17:47:24 10° SSW visible
01 Nov - 06:59:07 10° SSE 07:02:54 13° SE 07:06:40 10° E daylight
01 Nov - 08:57:07 10° SSW 09:05:51 40° SE 09:14:22 10° E daylight
01 Nov - 11:00:31 10° WSW 11:10:01 71° SSE 11:19:16 10° E daylight
01 Nov - 13:05:20 10° W 13:14:43 73° S 13:23:57 10° ESE daylight
01 Nov - 15:10:19 10° W 15:18:55 43° SW 15:27:28 10° SSE daylight
01 Nov - 17:17:25 10° W 17:21:52 14° SW 17:26:19 10° SSW visible
02 Nov - 06:38:11 10° SE 06:41:21 12° ESE 06:44:30 10° ESE daylight
02 Nov - 08:35:33 10° SSW 08:44:14 39° SE 08:52:41 10° E daylight
02 Nov - 10:38:51 10° WSW 10:48:21 70° SSE 10:57:37 10° E daylight
02 Nov - 12:43:40 10° W 12:53:04 74° S 13:02:19 10° ESE daylight
02 Nov - 14:48:37 10° W 14:57:19 45° SSW 15:05:56 10° SE daylight
02 Nov - 16:55:28 10° W 17:00:19 16° SW 17:05:12 10° SSW visible
03 Nov - 06:17:27 10° SE 06:19:48 11° ESE 06:22:08 10° ESE daylight
03 Nov - 08:14:00 10° SSW 08:22:37 38° SE 08:31:01 10° E daylight
03 Nov - 10:17:11 10° WSW 10:26:42 69° SSE 10:35:58 10° E daylight
03 Nov - 12:21:58 10° W 12:31:25 74° S 12:40:41 10° ESE daylight
03 Nov - 14:26:56 10° W 14:35:42 46° SSW 14:44:22 10° SE daylight
03 Nov - 16:33:32 10° W 16:38:46 17° SW 16:44:00 10° SSW visible
